Home > Weather > Banja Luka > Past weeks

Flag for Bosnia-Herzegovina Weather for the Past 2 Weeks in Banja Luka, Bosnia-Herzegovina

Now
58 °F

Overcast.


Feels Like: 58 °F
Forecast: 41 / 54 °F
Wind: 1 mph from Northeast

Location: Banja Luka

Current Time: Apr 30, 2016 at 7:51:54 PM

Latest Report: Apr 30, 2016 at 7:00 PM


Visibility: 9 mi

Pressure: 30.06 "Hg

Humidity: 68%

Dew Point: 47 °F

Location of Banja LukaLocation

Historic Weather in Banja Luka — Graph

°F

Banja Luka Temperature Yesterday

Maximum temperature yesterday: 50 °F (at 6:00 PM)
Minimum temperature yesterday: 46 °F (at 11:00 PM)
Average temperature yesterday: 49 °F

High & Low Weather Summary for the Past Weeks

 TemperatureHumidityPressure
High85 °F (Apr 17, 2:00 PM)96% (Apr 20, 7:00 AM)30.40 "Hg (Apr 20, 7:00 AM)
Low30 °F (Apr 26, 6:00 AM)17% (Apr 16, 3:00 PM)29.61 "Hg (Apr 23, 8:00 PM)
Average58 °F58%29.95 "Hg
* Reported Apr 15 6:00 PM — Apr 30 6:00 PM, Banja Luka, Weather by CustomWeather, © 2016

Note: Actual official high and low records may vary slightly from our data, if they occured in-between our weather recording intervals... More about our weather records

Advertising

Banja Luka Weather History for the Previous 24 Hours

Scroll right to see more
 ConditionsComfort  
Time TempWeatherWind HumidityBarometerVisibility
6:00 PM
Sat, Apr 30
59 °FOvercast.1 mph67%30.07 "Hg9 mi
5:00 PM58 °FOvercast.1 mph68%30.07 "Hg9 mi
4:00 PM58 °FPartly sunny.2 mph65%30.07 "Hg9 mi
3:00 PM56 °FOvercast.1 mph70%30.09 "Hg6 mi
2:00 PM55 °FFog.2 mph72%30.11 "Hg4 mi
1:00 PM53 °FLow clouds.3 mph76%30.12 "Hg4 mi
10:00 AM49 °FFog.1 mph85%30.15 "Hg1 mi
9:00 AM47 °FFog.1 mph88%30.15 "Hg1 mi
8:00 AM45 °FFog.No wind95%30.16 "Hg2 mi
7:00 AM43 °FFog.1 mph84%30.16 "Hg0 mi
2:00 AM42 °FFog.1 mph93%29.87 "Hg1 mi
11:00 PM
Fri, Apr 29
46 °FFog.No wind92%30.17 "Hg4 mi
10:00 PM48 °FFog.No wind90%30.16 "Hg4 mi
9:00 PM49 °FFog.No wind86%30.16 "Hg4 mi
8:00 PM49 °FFog.1 mph86%30.15 "Hg5 mi
7:00 PM50 °FFog.1 mph81%30.14 "Hg5 mi
Weather by CustomWeather, © 2016

See weather overviewHow to use our weather pages